Wetterdaten: aktuell Dienstag, 05.12.2023 09:15
Datum Zeit Temp. A. Temp. A. min Feuchte A. Luftdruck Regen Wind Richtung Richtung Sonnenschein Solar Taupunkt Windchill Windben
05.12.2023 09:15 3,9 C 3,8 C 91 % 1006,5 hPa 0,0 l/m 0,0 km/h (0 Bft) N-NO 17 0 min 0 W/m 2,6 C 3,9 C 0,0 km/h (0 Bft)
05.12.2023 09:10 3,8 C 3,8 C 91 % 1006,5 hPa 0,0 l/m 0,0 km/h (0 Bft) N-NO 22 0 min 0 W/m 2,5 C 3,8 C 0,0 km/h (0 Bft)
05.12.2023 09:08 3,8 C 3,8 C 91 % 1006,4 hPa 0,0 l/m 0,1 km/h (0 Bft) N-NO 22 0 min 0 W/m 2,5 C 3,8 C 3,2 km/h (1 Bft)
05.12.2023 09:00 3,8 C 3,7 C 91 % 1006,4 hPa 0,0 l/m 0,0 km/h (0 Bft) N-NO 33 0 min 0 W/m 2,5 C 3,8 C 0,0 km/h (0 Bft)
05.12.2023 08:55 3,7 C 3,7 C 91 % 1006,4 hPa 0,0 l/m 0,1 km/h (0 Bft) NW 315 0 min 0 W/m 2,4 C 3,7 C 1,6 km/h (1 Bft)
05.12.2023 08:50 3,7 C 3,7 C 91 % 1006,4 hPa 0,0 l/m 0,0 km/h (0 Bft) N 355 0 min 0 W/m 2,4 C 3,7 C 0,0 km/h (0 Bft)
05.12.2023 08:48 3,7 C 3,6 C 91 % 1006,4 hPa 0,0 l/m 1,5 km/h (1 Bft) NW 311 0 min 0 W/m 2,4 C 3,7 C 12,9 km/h (3 Bft)
05.12.2023 08:40 3,6 C 3,6 C 91 % 1006,2 hPa 0,0 l/m 0,2 km/h (0 Bft) N-NO 29 0 min 0 W/m 2,3 C 3,6 C 8,0 km/h (2 Bft)
05.12.2023 08:35 3,6 C 3,6 C 91 % 1006,2 hPa 0,0 l/m 0,0 km/h (0 Bft) W-NW 288 0 min 0 W/m 2,3 C 3,6 C 0,0 km/h (0 Bft)
05.12.2023 08:30 3,6 C 3,6 C 91 % 1006,1 hPa 0,0 l/m 0,0 km/h (0 Bft) N 5 0 min 0 W/m 2,3 C 3,6 C 0,0 km/h (0 Bft)
05.12.2023 08:27 3,6 C 3,6 C 91 % 1006,1 hPa 0,0 l/m 0,0 km/h (0 Bft) S-SO 161 0 min 0 W/m 2,3 C 3,6 C 1,6 km/h (1 Bft)
05.12.2023 08:20 3,6 C 3,5 C 91 % 1006,0 hPa 0,0 l/m 0,1 km/h (0 Bft) S-SO 149 0 min 0 W/m 2,3 C 3,6 C 1,6 km/h (1 Bft)
05.12.2023 08:15 3,6 C 3,5 C 91 % 1006,0 hPa 0,0 l/m 0,1 km/h (0 Bft) SO 144 0 min 0 W/m 2,3 C 3,6 C 1,6 km/h (1 Bft)
05.12.2023 08:10 3,5 C 3,5 C 91 % 1005,9 hPa 0,0 l/m 0,5 km/h (0 Bft) N-NO 25 0 min 0 W/m 2,2 C 3,5 C 4,8 km/h (1 Bft)
05.12.2023 08:07 3,5 C 3,5 C 91 % 1006,0 hPa 0,0 l/m 0,0 km/h (0 Bft) S-SO 152 0 min 0 W/m 2,2 C 3,5 C 0,0 km/h (0 Bft)
05.12.2023 08:00 3,6 C 3,5 C 90 % 1005,8 hPa 0,0 l/m 0,4 km/h (0 Bft) O-NO 58 0 min 0 W/m 2,1 C 3,6 C 6,4 km/h (2 Bft)
05.12.2023 07:55 3,5 C 3,5 C 90 % 1005,8 hPa 0,0 l/m 0,0 km/h (0 Bft) N 360 0 min 0 W/m 2,0 C 3,5 C 0,0 km/h (0 Bft)
05.12.2023 07:50 3,5 C 3,5 C 90 % 1005,7 hPa 0,0 l/m 0,0 km/h (0 Bft) S-SW 198 0 min 0 W/m 2,0 C 3,5 C 0,0 km/h (0 Bft)
05.12.2023 07:47 3,6 C 3,6 C 90 % 1005,7 hPa 0,0 l/m 0,0 km/h (0 Bft) S-SW 200 0 min 0 W/m 2,1 C 3,6 C 0,0 km/h (0 Bft)
05.12.2023 07:40 3,6 C 3,6 C 89 % 1005,7 hPa 0,0 l/m 0,0 km/h (0 Bft) N 5 0 min 0 W/m 2,0 C 3,6 C 0,0 km/h (0 Bft)
05.12.2023 07:35 3,6 C 3,6 C 89 % 1005,7 hPa 0,0 l/m 0,2 km/h (0 Bft) N-NO 19 0 min 0 W/m 2,0 C 3,6 C 1,6 km/h (1 Bft)
05.12.2023 07:30 3,7 C 3,7 C 89 % 1005,7 hPa 0,0 l/m 0,0 km/h (0 Bft) W-NW 300 0 min 0 W/m 2,1 C 3,7 C 0,0 km/h (0 Bft)
05.12.2023 07:27 3,8 C 3,8 C 89 % 1005,7 hPa 0,0 l/m 0,0 km/h (0 Bft) O-NO 63 0 min 0 W/m 2,2 C 3,8 C 0,0 km/h (0 Bft)
05.12.2023 07:20 3,8 C 3,8 C 89 % 1005,6 hPa 0,0 l/m 0,0 km/h (0 Bft) NO 46 0 min 0 W/m 2,2 C 3,8 C 0,0 km/h (0 Bft)
05.12.2023 07:15 3,9 C 3,8 C 89 % 1005,5 hPa 0,0 l/m 0,0 km/h (0 Bft) NO 46 0 min 0 W/m 2,3 C 3,9 C 0,0 km/h (0 Bft)
05.12.2023 07:10 3,9 C 3,9 C 90 % 1005,5 hPa 0,0 l/m 0,0 km/h (0 Bft) NO 50 0 min 0 W/m 2,4 C 3,9 C 0,0 km/h (0 Bft)
05.12.2023 07:05 3,9 C 3,9 C 90 % 1005,5 hPa 0,0 l/m 0,0 km/h (0 Bft) NO 42 0 min 0 W/m 2,4 C 3,9 C 1,6 km/h (1 Bft)
05.12.2023 07:00 4,0 C 3,9 C 90 % 1005,5 hPa 0,0 l/m 0,0 km/h (0 Bft) N 5 0 min 0 W/m 2,5 C 4,0 C 0,0 km/h (0 Bft)
05.12.2023 06:55 4,0 C 3,9 C 90 % 1005,5 hPa 0,0 l/m 0,0 km/h (0 Bft) O 94 0 min 0 W/m 2,5 C 4,0 C 0,0 km/h (0 Bft)
05.12.2023 06:50 3,9 C 3,9 C 90 % 1005,6 hPa 0,0 l/m 0,0 km/h (0 Bft) O-SO 122 0 min 0 W/m 2,4 C 3,9 C 0,0 km/h (0 Bft)
05.12.2023 06:45 3,9 C 3,9 C 90 % 1005,7 hPa 0,0 l/m 0,0 km/h (0 Bft) SW 233 0 min 0 W/m 2,4 C 3,9 C 0,0 km/h (0 Bft)
05.12.2023 06:40 3,9 C 3,9 C 90 % 1005,6 hPa 0,0 l/m 0,3 km/h (0 Bft) NO 35 0 min 0 W/m 2,4 C 3,9 C 3,2 km/h (1 Bft)
05.12.2023 06:35 3,9 C 3,9 C 90 % 1005,5 hPa 0,0 l/m 0,0 km/h (0 Bft) N 11 0 min 0 W/m 2,4 C 3,9 C 0,0 km/h (0 Bft)
05.12.2023 06:30 3,9 C 3,9 C 90 % 1005,5 hPa 0,0 l/m 0,0 km/h (0 Bft) W 274 0 min 0 W/m 2,4 C 3,9 C 0,0 km/h (0 Bft)
05.12.2023 06:25 3,9 C 3,9 C 90 % 1005,5 hPa 0,0 l/m 0,0 km/h (0 Bft) N 355 0 min 0 W/m 2,4 C 3,9 C 0,0 km/h (0 Bft)
05.12.2023 06:20 3,9 C 3,9 C 91 % 1005,4 hPa 0,0 l/m 0,0 km/h (0 Bft) NO 46 0 min 0 W/m 2,6 C 3,9 C 0,0 km/h (0 Bft)
05.12.2023 06:15 3,9 C 3,9 C 91 % 1005,4 hPa 0,0 l/m 0,0 km/h (0 Bft) N-NW 335 0 min 0 W/m 2,6 C 3,9 C 0,0 km/h (0 Bft)
05.12.2023 06:10 3,9 C 3,8 C 91 % 1005,4 hPa 0,0 l/m 0,1 km/h (0 Bft) N 9 0 min 0 W/m 2,6 C 3,9 C 1,6 km/h (1 Bft)
05.12.2023 06:05 3,9 C 3,8 C 91 % 1005,3 hPa 0,0 l/m 0,6 km/h (0 Bft) N-NO 27 0 min 0 W/m 2,6 C 3,9 C 4,8 km/h (1 Bft)
05.12.2023 06:00 3,8 C 3,8 C 91 % 1005,4 hPa 0,0 l/m 0,0 km/h (0 Bft) O-NO 67 0 min 0 W/m 2,5 C 3,8 C 0,0 km/h (0 Bft)
05.12.2023 05:55 3,8 C 3,8 C 91 % 1005,5 hPa 0,0 l/m 0,2 km/h (0 Bft) N-NO 12 0 min 0 W/m 2,5 C 3,8 C 3,2 km/h (1 Bft)
05.12.2023 05:50 3,8 C 3,8 C 91 % 1005,5 hPa 0,0 l/m 0,2 km/h (0 Bft) N-NO 30 0 min 0 W/m 2,5 C 3,8 C 1,6 km/h (1 Bft)
05.12.2023 05:45 3,8 C 3,7 C 91 % 1005,5 hPa 0,0 l/m 0,0 km/h (0 Bft) W-NW 286 0 min 0 W/m 2,5 C 3,8 C 0,0 km/h (0 Bft)
05.12.2023 05:40 3,8 C 3,7 C 91 % 1005,4 hPa 0,0 l/m 0,2 km/h (0 Bft) N 360 0 min 0 W/m 2,5 C 3,8 C 3,2 km/h (1 Bft)
05.12.2023 05:35 3,8 C 3,7 C 91 % 1005,4 hPa 0,0 l/m 0,1 km/h (0 Bft) SO 146 0 min 0 W/m 2,5 C 3,8 C 1,6 km/h (1 Bft)
05.12.2023 05:30 3,7 C 3,7 C 91 % 1005,4 hPa 0,2 l/m 0,0 km/h (0 Bft) N 5 0 min 0 W/m 2,4 C 3,7 C 1,6 km/h (1 Bft)
05.12.2023 05:25 3,7 C 3,7 C 91 % 1005,4 hPa 0,0 l/m 0,2 km/h (0 Bft) N 355 0 min 0 W/m 2,4 C 3,7 C 1,6 km/h (1 Bft)
05.12.2023 05:20 3,7 C 3,7 C 91 % 1005,2 hPa 0,0 l/m 0,0 km/h (0 Bft) S-SO 161 0 min 0 W/m 2,4 C 3,7 C 1,6 km/h (1 Bft)
05.12.2023 05:15 3,7 C 3,7 C 91 % 1005,2 hPa 0,0 l/m 0,0 km/h (0 Bft) NO 51 0 min 0 W/m 2,4 C 3,7 C 0,0 km/h (0 Bft)
05.12.2023 05:10 3,7 C 3,7 C 91 % 1005,4 hPa 0,0 l/m 0,0 km/h (0 Bft) N-NW 331 0 min 0 W/m 2,4 C 3,7 C 0,0 km/h (0 Bft)
05.12.2023 05:05 3,7 C 3,6 C 91 % 1005,2 hPa 0,0 l/m 0,1 km/h (0 Bft) O-NO 57 0 min 0 W/m 2,4 C 3,7 C 1,6 km/h (1 Bft)
05.12.2023 05:00 3,6 C 3,6 C 91 % 1005,3 hPa 0,0 l/m 0,0 km/h (0 Bft) NO 46 0 min 0 W/m 2,3 C 3,6 C 1,6 km/h (1 Bft)
05.12.2023 04:55 3,6 C 3,6 C 90 % 1005,5 hPa 0,0 l/m 0,0 km/h (0 Bft) N-NO 20 0 min 0 W/m 2,1 C 3,6 C 0,0 km/h (0 Bft)
05.12.2023 04:50 3,6 C 3,6 C 90 % 1005,3 hPa 0,0 l/m 0,1 km/h (0 Bft) N-NO 18 0 min 0 W/m 2,1 C 3,6 C 3,2 km/h (1 Bft)
05.12.2023 04:45 3,6 C 3,6 C 90 % 1005,4 hPa 0,0 l/m 0,1 km/h (0 Bft) N-NO 22 0 min 0 W/m 2,1 C 3,6 C 3,2 km/h (1 Bft)
05.12.2023 04:40 3,6 C 3,6 C 90 % 1005,5 hPa 0,0 l/m 0,0 km/h (0 Bft) N 11 0 min 0 W/m 2,1 C 3,6 C 0,0 km/h (0 Bft)
05.12.2023 04:35 3,7 C 3,7 C 90 % 1005,4 hPa 0,0 l/m 0,0 km/h (0 Bft) NO 49 0 min 0 W/m 2,2 C 3,7 C 0,0 km/h (0 Bft)
05.12.2023 04:30 3,7 C 3,7 C 89 % 1005,5 hPa 0,0 l/m 0,0 km/h (0 Bft) NO 40 0 min 0 W/m 2,1 C 3,7 C 1,6 km/h (1 Bft)
05.12.2023 04:25 3,7 C 3,7 C 89 % 1005,6 hPa 0,0 l/m 0,1 km/h (0 Bft) O-NO 59 0 min 0 W/m 2,1 C 3,7 C 1,6 km/h (1 Bft)
05.12.2023 04:20 3,8 C 3,8 C 89 % 1005,5 hPa 0,0 l/m 0,2 km/h (0 Bft) NO 36 0 min 0 W/m 2,2 C 3,8 C 1,6 km/h (1 Bft)
05.12.2023 04:15 3,8 C 3,8 C 90 % 1005,4 hPa 0,0 l/m 0,0 km/h (0 Bft) NO 38 0 min 0 W/m 2,3 C 3,8 C 0,0 km/h (0 Bft)
05.12.2023 04:10 3,8 C 3,8 C 90 % 1005,3 hPa 0,0 l/m 0,0 km/h (0 Bft) N-NW 344 0 min 0 W/m 2,3 C 3,8 C 1,6 km/h (1 Bft)
05.12.2023 04:05 3,8 C 3,8 C 90 % 1005,2 hPa 0,0 l/m 0,0 km/h (0 Bft) NO 53 0 min 0 W/m 2,3 C 3,8 C 1,6 km/h (1 Bft)
05.12.2023 04:00 3,9 C 3,8 C 90 % 1005,2 hPa 0,0 l/m 0,3 km/h (0 Bft) NO 47 0 min 0 W/m 2,4 C 3,9 C 3,2 km/h (1 Bft)
05.12.2023 03:55 3,9 C 3,8 C 90 % 1005,2 hPa 0,0 l/m 0,0 km/h (0 Bft) NO 53 0 min 0 W/m 2,4 C 3,9 C 0,0 km/h (0 Bft)
05.12.2023 03:50 3,8 C 3,8 C 90 % 1005,2 hPa 0,0 l/m 0,1 km/h (0 Bft) N 10 0 min 0 W/m 2,3 C 3,8 C 1,6 km/h (1 Bft)
05.12.2023 03:45 3,8 C 3,8 C 90 % 1005,2 hPa 0,2 l/m 0,3 km/h (0 Bft) O-NO 74 0 min 0 W/m 2,3 C 3,8 C 4,8 km/h (1 Bft)
05.12.2023 03:40 3,8 C 3,8 C 91 % 1005,2 hPa 0,0 l/m 0,2 km/h (0 Bft) NO 36 0 min 0 W/m 2,5 C 3,8 C 3,2 km/h (1 Bft)
05.12.2023 03:35 3,8 C 3,7 C 91 % 1005,2 hPa 0,0 l/m 0,0 km/h (0 Bft) N-NO 12 0 min 0 W/m 2,5 C 3,8 C 0,0 km/h (0 Bft)
05.12.2023 03:30 3,7 C 3,7 C 91 % 1005,2 hPa 0,0 l/m 0,5 km/h (0 Bft) O 88 0 min 0 W/m 2,4 C 3,7 C 6,4 km/h (2 Bft)
05.12.2023 03:25 3,7 C 3,7 C 91 % 1005,1 hPa 0,0 l/m 0,1 km/h (0 Bft) W 262 0 min 0 W/m 2,4 C 3,7 C 4,8 km/h (1 Bft)
05.12.2023 03:20 3,7 C 3,6 C 91 % 1005,1 hPa 0,0 l/m 0,0 km/h (0 Bft) W-SW 254 0 min 0 W/m 2,4 C 3,7 C 0,0 km/h (0 Bft)
05.12.2023 03:15 3,6 C 3,6 C 91 % 1005,2 hPa 0,0 l/m 0,0 km/h (0 Bft) N-NO 14 0 min 0 W/m 2,3 C 3,6 C 0,0 km/h (0 Bft)
05.12.2023 03:10 3,6 C 3,6 C 91 % 1005,2 hPa 0,0 l/m 0,0 km/h (0 Bft) NO 45 0 min 0 W/m 2,3 C 3,6 C 1,6 km/h (1 Bft)
05.12.2023 03:05 3,6 C 3,5 C 91 % 1005,2 hPa 0,0 l/m 0,2 km/h (0 Bft) N-NO 21 0 min 0 W/m 2,3 C 3,6 C 6,4 km/h (2 Bft)
05.12.2023 03:00 3,5 C 3,5 C 91 % 1005,3 hPa 0,0 l/m 0,1 km/h (0 Bft) NO 51 0 min 0 W/m 2,2 C 3,5 C 4,8 km/h (1 Bft)
05.12.2023 02:55 3,5 C 3,4 C 91 % 1005,2 hPa 0,0 l/m 0,1 km/h (0 Bft) W-NW 300 0 min 0 W/m 2,2 C 3,5 C 6,4 km/h (2 Bft)
05.12.2023 02:50 3,4 C 3,3 C 91 % 1005,1 hPa 0,0 l/m 0,0 km/h (0 Bft) NO 55 0 min 0 W/m 2,1 C 3,4 C 0,0 km/h (0 Bft)
05.12.2023 02:45 3,4 C 3,3 C 91 % 1005,2 hPa 0,0 l/m 1,1 km/h (1 Bft) N-NW 342 0 min 0 W/m 2,1 C 3,4 C 11,3 km/h (2 Bft)
05.12.2023 02:40 3,3 C 3,2 C 91 % 1005,1 hPa 0,0 l/m 1,0 km/h (0 Bft) NW 326 0 min 0 W/m 2,0 C 3,3 C 9,7 km/h (2 Bft)
05.12.2023 02:35 3,2 C 3,2 C 91 % 1005,2 hPa 0,0 l/m 1,2 km/h (1 Bft) N 360 0 min 0 W/m 1,9 C 3,2 C 3,2 km/h (1 Bft)
05.12.2023 02:30 3,2 C 3,2 C 91 % 1005,2 hPa 0,0 l/m 0,4 km/h (0 Bft) NO 49 0 min 0 W/m 1,9 C 3,2 C 3,2 km/h (1 Bft)
05.12.2023 02:25 3,2 C 3,1 C 91 % 1005,1 hPa 0,0 l/m 0,0 km/h (0 Bft) N-NW 348 0 min 0 W/m 1,9 C 3,2 C 1,6 km/h (1 Bft)
05.12.2023 02:20 3,2 C 3,1 C 91 % 1005,1 hPa 0,2 l/m 0,0 km/h (0 Bft) O 81 0 min 0 W/m 1,9 C 3,2 C 0,0 km/h (0 Bft)
05.12.2023 02:15 3,1 C 3,1 C 91 % 1005,0 hPa 0,0 l/m 0,2 km/h (0 Bft) W-SW 253 0 min 0 W/m 1,8 C 3,1 C 3,2 km/h (1 Bft)
05.12.2023 02:10 3,1 C 3,1 C 91 % 1005,0 hPa 0,0 l/m 0,0 km/h (0 Bft) SW 221 0 min 0 W/m 1,8 C 3,1 C 0,0 km/h (0 Bft)
05.12.2023 02:05 3,1 C 3,1 C 91 % 1005,1 hPa 0,0 l/m 0,2 km/h (0 Bft) O-NO 58 0 min 0 W/m 1,8 C 3,1 C 1,6 km/h (1 Bft)
05.12.2023 02:00 3,1 C 3,0 C 91 % 1005,0 hPa 0,0 l/m 0,0 km/h (0 Bft) W-SW 257 0 min 0 W/m 1,8 C 3,1 C 1,6 km/h (1 Bft)
05.12.2023 01:55 3,1 C 2,9 C 91 % 1005,0 hPa 0,2 l/m 0,0 km/h (0 Bft) W 273 0 min 0 W/m 1,8 C 3,1 C 0,0 km/h (0 Bft)
05.12.2023 01:50 3,0 C 2,9 C 91 % 1005,0 hPa 0,0 l/m 0,3 km/h (0 Bft) NW 316 0 min 0 W/m 1,7 C 3,0 C 3,2 km/h (1 Bft)
05.12.2023 01:45 2,9 C 2,9 C 91 % 1004,9 hPa 0,0 l/m 0,2 km/h (0 Bft) W-NW 298 0 min 0 W/m 1,6 C 2,9 C 4,8 km/h (1 Bft)
05.12.2023 01:40 2,9 C 2,9 C 90 % 1004,9 hPa 0,0 l/m 0,0 km/h (0 Bft) NW 316 0 min 0 W/m 1,4 C 2,9 C 0,0 km/h (0 Bft)
05.12.2023 01:35 2,9 C 2,9 C 90 % 1004,9 hPa 0,0 l/m 0,1 km/h (0 Bft) N 5 0 min 0 W/m 1,4 C 2,9 C 4,8 km/h (1 Bft)
05.12.2023 01:30 2,9 C 2,9 C 90 % 1005,0 hPa 0,0 l/m 0,0 km/h (0 Bft) N 10 0 min 0 W/m 1,4 C 2,9 C 0,0 km/h (0 Bft)
05.12.2023 01:25 2,9 C 2,9 C 90 % 1004,9 hPa 0,0 l/m 0,0 km/h (0 Bft) NW 325 0 min 0 W/m 1,4 C 2,9 C 1,6 km/h (1 Bft)
05.12.2023 01:20 2,9 C 2,8 C 90 % 1005,0 hPa 0,0 l/m 0,0 km/h (0 Bft) N 355 0 min 0 W/m 1,4 C 2,9 C 3,2 km/h (1 Bft)
05.12.2023 01:15 2,8 C 2,8 C 90 % 1005,1 hPa 0,0 l/m 0,1 km/h (0 Bft) N-NW 344 0 min 0 W/m 1,3 C 2,8 C 3,2 km/h (1 Bft)
05.12.2023 01:10 2,9 C 2,8 C 90 % 1005,2 hPa 0,0 l/m 0,7 km/h (0 Bft) NO 43 0 min 0 W/m 1,4 C 2,9 C 11,3 km/h (2 Bft)
05.12.2023 01:05 2,8 C 2,8 C 90 % 1005,2 hPa 0,2 l/m 0,3 km/h (0 Bft) N-NW 336 0 min 0 W/m 1,3 C 2,8 C 4,8 km/h (1 Bft)
05.12.2023 01:00 2,8 C 2,8 C 90 % 1005,2 hPa 0,0 l/m 0,0 km/h (0 Bft) W-NW 296 0 min 0 W/m 1,3 C 2,8 C 1,6 km/h (1 Bft)
05.12.2023 00:55 2,8 C 2,7 C 90 % 1005,1 hPa 0,0 l/m 1,2 km/h (1 Bft) NW 321 0 min 0 W/m 1,3 C 2,8 C 14,5 km/h (3 Bft)
05.12.2023 00:50 2,7 C 2,7 C 90 % 1005,1 hPa 0,0 l/m 0,3 km/h (0 Bft) N 349 0 min 0 W/m 1,2 C 2,7 C 3,2 km/h (1 Bft)
05.12.2023 00:45 2,7 C 2,7 C 90 % 1005,2 hPa 0,0 l/m 0,4 km/h (0 Bft) W-NW 296 0 min 0 W/m 1,2 C 2,7 C 3,2 km/h (1 Bft)
05.12.2023 00:40 2,7 C 2,6 C 90 % 1005,2 hPa 0,0 l/m 0,6 km/h (0 Bft) N 360 0 min 0 W/m 1,2 C 2,7 C 14,5 km/h (3 Bft)
05.12.2023 00:35 2,6 C 2,6 C 89 % 1005,2 hPa 0,2 l/m 0,5 km/h (0 Bft) NW 321 0 min 0 W/m 1,0 C 2,6 C 8,0 km/h (2 Bft)
05.12.2023 00:30 2,6 C 2,5 C 90 % 1005,2 hPa 0,0 l/m 0,5 km/h (0 Bft) NW 325 0 min 0 W/m 1,1 C 2,6 C 4,8 km/h (1 Bft)
05.12.2023 00:25 2,6 C 2,5 C 90 % 1005,2 hPa 0,0 l/m 0,1 km/h (0 Bft) NW 313 0 min 0 W/m 1,1 C 2,6 C 1,6 km/h (1 Bft)
05.12.2023 00:20 2,5 C 2,4 C 90 % 1005,4 hPa 0,0 l/m 1,0 km/h (0 Bft) NW 321 0 min 0 W/m 1,0 C 2,5 C 9,7 km/h (2 Bft)
05.12.2023 00:15 2,4 C 2,4 C 90 % 1005,3 hPa 0,0 l/m 1,2 km/h (1 Bft) NW 311 0 min 0 W/m 0,9 C 2,4 C 16,1 km/h (3 Bft)
05.12.2023 00:10 2,4 C 2,4 C 90 % 1005,4 hPa 0,0 l/m 0,9 km/h (0 Bft) NW 326 0 min 0 W/m 0,9 C 2,4 C 8,0 km/h (2 Bft)
05.12.2023 00:05 2,4 C 2,3 C 90 % 1005,3 hPa 0,0 l/m 2,2 km/h (1 Bft) N-NO 14 0 min 0 W/m 0,9 C 2,4 C 17,7 km/h (3 Bft)
05.12.2023 00:00 2,4 C 2,3 C 90 % 1005,5 hPa 0,0 l/m 2,3 km/h (1 Bft) N-NW 344 0 min 0 W/m 0,9 C 2,4 C 9,7 km/h (2 Bft)
_ Min-Zeit 00:05 00:00 00:35 01:25 - 01:00 - - - - 00:00 00:00 01:30
Minimum _ 2,3 C 2,3 C 89 % 1004,9 hPa - 0,0 km/h (0 Bft) - - - - 0,9 C 2,4 C 0,0 km/h (0 Bft)
_ Max-Zeit 06:45 06:15 01:45 09:10 00:35 00:00 - - 00:00 00:00 06:05 06:55 00:05
Maximum _ 4,0 C 3,9 C 91 % 1006,5 hPa 0,2 l/m 2,3 km/h
N-NW (1 Bft)
- - 0 min 0 W/m 2,6 C 4,0 C 17,7 km/h
N-NW (3 Bft)
Durchschnitt _ 3,5 C 3,4 C 90 % 1005,4 hPa #1,2 l/m 0,2 km/h (0 Bft) NW - #0 min. 0 W/m 2,1 C 3,5 C 2,8 km/h (1 Bft)